Terug naar catalogus

STARLINK-6073

ActiefCommunicatieVLEO
NORAD 56807·PAYLOAD·🇺🇸 United States

Gelanceerd May 31, 2023 vanaf Vandenberg Space Force Base

Loading…

Volgende Passages (komende 24 uur)

TLE

VersSource: CelesTrak SupGP

Epoch: Sep 15, 2026, 01:33 UTC

1 56807C 23078AS  26258.06506944 -.00029388  00000+0 -24631-2 0  2580
2 56807  70.0015 206.7978 0002906 270.7482 115.7239 14.98342428    11

Volg STARLINK-6073 in realtime met AllMySat

Download on the App Store